Location: Beuvrequen
(50.8014°N, 1.6652°E)
Time: 02:59:02
(UTC+00:00)

Okean-O - Pass Details

Date: 16 October 2021
Orbit: 638 x 640 km, 98.2° (Epoch: 28 November)

Event Time Altitude Azimuth Distance (km) Brightness Sun altitude
Exits shadow 19:45:18 14° 205° (SSW) 1,805 5.0 -26.8°
Maximum altitude 19:48:37 32° 264° (W) 1,107 4.3 -27.3°
Drops below altitude 10° 19:52:38 10° 328° (NNW) 2,045 5.8 -27.9°
Sets 19:55:03 0° 338° (NNW) 2,959 6.6 -28.2°
